Time,TemperatureF,DewpointF,PressureIn,WindDirection,WindDirectionDegrees,WindSpeedMPH,WindSpeedGustMPH,Humidity,HourlyPrecipIn,Conditions,Clouds,dailyrainin,SolarRadiationWatts/m^2,SoftwareType,DateUTC
2013-02-10 00:01:00,20.0,10.0,-100.00,North,11,3.0,10.0,65,0.00,,,0.00,0.000000,,2013-02-10 07:01:00,
2013-02-10 00:11:00,20.0,10.0,-100.00,North,11,3.0,10.0,65,0.00,,,0.00,0.000000,,2013-02-10 07:11:00,
2013-02-10 00:21:00,20.0,10.0,-100.00,North,11,3.0,10.0,65,0.00,,,0.00,0.000000,,2013-02-10 07:21:00,
2013-02-10 00:31:00,20.0,10.0,-100.00,North,11,3.0,10.0,65,0.00,,,0.00,0.000000,,2013-02-10 07:31:00,
2013-02-10 01:01:00,20.0,10.0,-100.00,North,0,5.0,12.0,65,0.00,,,0.00,0.000000,,2013-02-10 08:01:00,
2013-02-10 01:11:00,20.0,10.0,-100.00,North,0,5.0,12.0,65,0.00,,,0.00,0.000000,,2013-02-10 08:11:00,
2013-02-10 01:21:00,20.0,10.0,-100.00,North,0,5.0,12.0,65,0.00,,,0.00,0.000000,,2013-02-10 08:21:00,
2013-02-10 01:31:00,20.0,10.0,-100.00,North,0,5.0,12.0,65,0.00,,,0.00,0.000000,,2013-02-10 08:31:00,
2013-02-10 02:02:00,19.0,10.0,-100.00,NNE,18,3.0,11.0,67,0.00,,,0.00,0.000000,,2013-02-10 09:02:00,
2013-02-10 02:11:00,19.0,10.0,-100.00,NNE,18,3.0,11.0,67,0.00,,,0.00,0.000000,,2013-02-10 09:11:00,
2013-02-10 02:21:00,19.0,10.0,-100.00,NNE,18,3.0,11.0,67,0.00,,,0.00,0.000000,,2013-02-10 09:21:00,
2013-02-10 02:31:00,19.0,10.0,-100.00,NNE,18,3.0,11.0,67,0.00,,,0.00,0.000000,,2013-02-10 09:31:00,
2013-02-10 03:01:00,18.0,9.0,-100.00,NNE,19,2.0,8.0,68,0.00,,,0.00,0.000000,,2013-02-10 10:01:00,
2013-02-10 03:11:00,18.0,9.0,-100.00,NNE,19,2.0,8.0,68,0.00,,,0.00,0.000000,,2013-02-10 10:11:00,
2013-02-10 03:21:00,18.0,9.0,-100.00,NNE,19,2.0,8.0,68,0.00,,,0.00,0.000000,,2013-02-10 10:21:00,
2013-02-10 03:31:00,18.0,9.0,-100.00,NNE,19,2.0,8.0,68,0.00,,,0.00,0.000000,,2013-02-10 10:31:00,
2013-02-10 04:01:00,17.0,10.0,-100.00,NNE,13,3.0,7.0,73,0.00,,,0.00,0.000000,,2013-02-10 11:01:00,
2013-02-10 04:11:00,17.0,10.0,-100.00,NNE,13,3.0,7.0,73,0.00,,,0.00,0.000000,,2013-02-10 11:11:00,
2013-02-10 04:21:00,17.0,10.0,-100.00,NNE,13,3.0,7.0,73,0.00,,,0.00,0.000000,,2013-02-10 11:21:00,
2013-02-10 04:31:00,17.0,10.0,-100.00,NNE,13,3.0,7.0,73,0.00,,,0.00,0.000000,,2013-02-10 11:31:00,
2013-02-10 05:01:00,18.0,10.0,-100.00,North,2,5.0,9.0,71,0.00,,,0.00,0.000000,,2013-02-10 12:01:00,
2013-02-10 05:12:00,18.0,10.0,-100.00,North,2,5.0,9.0,71,0.00,,,0.00,0.000000,,2013-02-10 12:12:00,
2013-02-10 05:21:00,18.0,10.0,-100.00,North,2,5.0,9.0,71,0.00,,,0.00,0.000000,,2013-02-10 12:21:00,
2013-02-10 05:32:00,18.0,10.0,-100.00,North,2,5.0,9.0,71,0.00,,,0.00,0.000000,,2013-02-10 12:32:00,
2013-02-10 08:01:00,16.0,5.0,-100.00,North,357,5.0,11.0,62,-99.99,,,0.00,0.000000,,2013-02-10 15:01:00,
2013-02-10 08:11:00,16.0,5.0,-100.00,North,357,5.0,11.0,62,-99.99,,,0.00,0.000000,,2013-02-10 15:11:00,
2013-02-10 08:21:00,16.0,5.0,-100.00,North,357,5.0,11.0,62,-99.99,,,0.00,0.000000,,2013-02-10 15:21:00,
2013-02-10 08:31:00,16.0,5.0,-100.00,North,357,5.0,11.0,62,-99.99,,,0.00,0.000000,,2013-02-10 15:31:00,
2013-02-10 09:01:00,17.0,2.0,-100.00,North,355,6.0,20.0,50,0.00,,,0.00,27.000000,,2013-02-10 16:01:00,
2013-02-10 09:11:00,17.0,2.0,-100.00,North,355,6.0,20.0,50,0.00,,,0.00,27.000000,,2013-02-10 16:11:00,
2013-02-10 09:21:00,17.0,2.0,-100.00,North,355,6.0,20.0,50,0.00,,,0.00,27.000000,,2013-02-10 16:21:00,
2013-02-10 09:31:00,17.0,2.0,-100.00,North,355,6.0,20.0,50,0.00,,,0.00,27.000000,,2013-02-10 16:31:00,
2013-02-10 10:01:00,18.0,3.0,-100.00,North,2,6.0,17.0,51,0.00,,,0.00,87.000000,,2013-02-10 17:01:00,
2013-02-10 10:11:00,18.0,3.0,-100.00,North,2,6.0,17.0,51,0.00,,,0.00,87.000000,,2013-02-10 17:11:00,
2013-02-10 10:21:00,18.0,3.0,-100.00,North,2,6.0,17.0,51,0.00,,,0.00,87.000000,,2013-02-10 17:21:00,
2013-02-10 10:31:00,18.0,3.0,-100.00,North,2,6.0,17.0,51,0.00,,,0.00,87.000000,,2013-02-10 17:31:00,
2013-02-10 11:02:00,19.0,1.0,-100.00,North,9,7.0,23.0,44,0.00,,,0.00,166.000000,,2013-02-10 18:02:00,
2013-02-10 11:11:00,19.0,1.0,-100.00,North,9,7.0,23.0,44,0.00,,,0.00,166.000000,,2013-02-10 18:11:00,
2013-02-10 11:21:00,19.0,1.0,-100.00,North,9,7.0,23.0,44,0.00,,,0.00,166.000000,,2013-02-10 18:21:00,
2013-02-10 11:31:00,19.0,1.0,-100.00,North,9,7.0,23.0,44,0.00,,,0.00,166.000000,,2013-02-10 18:31:00,
2013-02-10 12:01:00,21.0,2.0,-100.00,NNE,18,7.0,21.0,43,0.00,,,0.00,155.000000,,2013-02-10 19:01:00,
2013-02-10 12:11:00,21.0,2.0,-100.00,NNE,18,7.0,21.0,43,0.00,,,0.00,155.000000,,2013-02-10 19:11:00,
2013-02-10 12:21:00,21.0,2.0,-100.00,NNE,18,7.0,21.0,43,0.00,,,0.00,155.000000,,2013-02-10 19:21:00,
2013-02-10 12:31:00,21.0,2.0,-100.00,NNE,18,7.0,21.0,43,0.00,,,0.00,155.000000,,2013-02-10 19:31:00,
2013-02-10 12:52:00,21.0,1.0,-100.00,NNE,14,9.0,20.0,40,0.00,,,0.00,221.000000,,2013-02-10 19:52:00,
2013-02-10 13:02:00,21.0,1.0,-100.00,NNE,14,9.0,20.0,40,0.00,,,0.00,221.000000,,2013-02-10 20:02:00,
2013-02-10 13:11:00,21.0,1.0,-100.00,NNE,14,9.0,20.0,40,0.00,,,0.00,221.000000,,2013-02-10 20:11:00,
2013-02-10 13:21:00,21.0,1.0,-100.00,NNE,14,9.0,20.0,40,0.00,,,0.00,221.000000,,2013-02-10 20:21:00,
2013-02-10 13:31:00,21.0,1.0,-100.00,NNE,14,9.0,20.0,40,0.00,,,0.00,221.000000,,2013-02-10 20:31:00,
2013-02-10 14:02:00,23.0,1.0,-100.00,NNE,26,8.0,19.0,37,0.00,,,0.00,289.000000,,2013-02-10 21:02:00,
2013-02-10 14:11:00,23.0,1.0,-100.00,NNE,26,8.0,19.0,37,0.00,,,0.00,289.000000,,2013-02-10 21:11:00,
2013-02-10 14:21:00,23.0,1.0,-100.00,NNE,26,8.0,19.0,37,0.00,,,0.00,289.000000,,2013-02-10 21:21:00,
2013-02-10 14:31:00,23.0,1.0,-100.00,NNE,26,8.0,19.0,37,0.00,,,0.00,289.000000,,2013-02-10 21:31:00,
2013-02-10 15:01:00,21.0,-2.0,-100.00,NNE,17,8.0,18.0,36,0.00,,,0.00,303.000000,,2013-02-10 22:01:00,
2013-02-10 15:11:00,21.0,-2.0,-100.00,NNE,17,8.0,18.0,36,0.00,,,0.00,303.000000,,2013-02-10 22:11:00,
2013-02-10 15:21:00,21.0,-2.0,-100.00,NNE,17,8.0,18.0,36,0.00,,,0.00,303.000000,,2013-02-10 22:21:00,
2013-02-10 15:31:00,21.0,-2.0,-100.00,NNE,17,8.0,18.0,36,0.00,,,0.00,303.000000,,2013-02-10 22:31:00,
2013-02-10 16:02:00,19.0,-2.0,-100.00,North,4,7.0,16.0,38,0.00,,,0.00,62.000000,,2013-02-10 23:02:00,
2013-02-10 16:11:00,19.0,-2.0,-100.00,North,4,7.0,16.0,38,0.00,,,0.00,62.000000,,2013-02-10 23:11:00,
2013-02-10 16:21:00,19.0,-2.0,-100.00,North,4,7.0,16.0,38,0.00,,,0.00,62.000000,,2013-02-10 23:21:00,
2013-02-10 16:31:00,19.0,-2.0,-100.00,North,4,7.0,16.0,38,0.00,,,0.00,62.000000,,2013-02-10 23:31:00,
2013-02-10 17:01:00,19.0,-1.0,-100.00,North,11,7.0,16.0,40,0.00,,,0.00,36.000000,,2013-02-11 00:01:00,
2013-02-10 17:11:00,19.0,-1.0,-100.00,North,11,7.0,16.0,40,0.00,,,0.00,36.000000,,2013-02-11 00:11:00,
2013-02-10 17:21:00,19.0,-1.0,-100.00,North,11,7.0,16.0,40,0.00,,,0.00,36.000000,,2013-02-11 00:21:00,
2013-02-10 17:31:00,19.0,-1.0,-100.00,North,11,7.0,16.0,40,0.00,,,0.00,36.000000,,2013-02-11 00:31:00,
2013-02-10 18:01:00,16.0,-1.0,-100.00,North,8,4.0,14.0,46,0.00,,,0.00,15.000000,,2013-02-11 01:01:00,
2013-02-10 18:11:00,16.0,-1.0,-100.00,North,8,4.0,14.0,46,0.00,,,0.00,15.000000,,2013-02-11 01:11:00,
2013-02-10 18:21:00,16.0,-1.0,-100.00,North,8,4.0,14.0,46,0.00,,,0.00,15.000000,,2013-02-11 01:21:00,
2013-02-10 18:31:00,16.0,-1.0,-100.00,North,8,4.0,14.0,46,0.00,,,0.00,15.000000,,2013-02-11 01:31:00,
2013-02-10 19:01:00,13.0,-1.0,-100.00,NNE,13,2.0,9.0,52,0.00,,,0.00,0.000000,,2013-02-11 02:01:00,
2013-02-10 19:11:00,13.0,-1.0,-100.00,NNE,13,2.0,9.0,52,0.00,,,0.00,0.000000,,2013-02-11 02:11:00,
2013-02-10 19:21:00,13.0,-1.0,-100.00,NNE,13,2.0,9.0,52,0.00,,,0.00,0.000000,,2013-02-11 02:21:00,
2013-02-10 19:31:00,13.0,-1.0,-100.00,NNE,13,2.0,9.0,52,0.00,,,0.00,0.000000,,2013-02-11 02:31:00,
2013-02-10 19:52:00,7.0,-3.0,-100.00,East,87,0.0,6.0,64,0.00,,,0.00,0.000000,,2013-02-11 02:52:00,
2013-02-10 20:01:00,7.0,-3.0,-100.00,East,87,0.0,6.0,64,0.00,,,0.00,0.000000,,2013-02-11 03:01:00,
2013-02-10 20:11:00,7.0,-3.0,-100.00,East,87,0.0,6.0,64,0.00,,,0.00,0.000000,,2013-02-11 03:11:00,
2013-02-10 20:21:00,7.0,-3.0,-100.00,East,87,0.0,6.0,64,0.00,,,0.00,0.000000,,2013-02-11 03:21:00,
2013-02-10 20:31:00,7.0,-3.0,-100.00,East,87,0.0,6.0,64,0.00,,,0.00,0.000000,,2013-02-11 03:31:00,
2013-02-10 20:52:00,4.0,-4.0,-100.00,SSW,196,1.0,6.0,69,0.00,,,0.00,0.000000,,2013-02-11 03:52:00,
2013-02-10 21:01:00,4.0,-4.0,-100.00,SSW,196,1.0,6.0,69,0.00,,,0.00,0.000000,,2013-02-11 04:01:00,
2013-02-10 21:11:00,4.0,-4.0,-100.00,SSW,196,1.0,6.0,69,0.00,,,0.00,0.000000,,2013-02-11 04:11:00,
2013-02-10 21:21:00,4.0,-4.0,-100.00,SSW,196,1.0,6.0,69,0.00,,,0.00,0.000000,,2013-02-11 04:21:00,
2013-02-10 21:31:00,4.0,-4.0,-100.00,SSW,196,1.0,6.0,69,0.00,,,0.00,0.000000,,2013-02-11 04:31:00,
2013-02-10 21:52:00,0.0,-6.0,-100.00,SSE,167,1.0,3.0,74,0.00,,,0.00,0.000000,,2013-02-11 04:52:00,
2013-02-10 22:01:00,0.0,-6.0,-100.00,SSE,167,1.0,3.0,74,0.00,,,0.00,0.000000,,2013-02-11 05:01:00,
2013-02-10 22:11:00,0.0,-6.0,-100.00,SSE,167,1.0,3.0,74,0.00,,,0.00,0.000000,,2013-02-11 05:11:00,
2013-02-10 22:22:00,0.0,-6.0,-100.00,SSE,167,1.0,3.0,74,0.00,,,0.00,0.000000,,2013-02-11 05:22:00,
2013-02-10 22:31:00,0.0,-6.0,-100.00,SSE,167,1.0,3.0,74,0.00,,,0.00,0.000000,,2013-02-11 05:31:00,
2013-02-10 23:01:00,-3.0,-9.0,-100.00,NNW,334,0.0,3.0,73,0.00,,,0.00,0.000000,,2013-02-11 06:01:00,
2013-02-10 23:11:00,-3.0,-9.0,-100.00,NNW,334,0.0,3.0,73,0.00,,,0.00,0.000000,,2013-02-11 06:11:00,
2013-02-10 23:21:00,-3.0,-9.0,-100.00,NNW,334,0.0,3.0,73,0.00,,,0.00,0.000000,,2013-02-11 06:21:00,
2013-02-10 23:31:00,-3.0,-9.0,-100.00,NNW,334,0.0,3.0,73,0.00,,,0.00,0.000000,,2013-02-11 06:31:00,
2013-02-10 23:52:00,-7.0,-14.0,-100.00,SSW,206,0.0,2.0,71,-99.99,,,0.00,0.000000,,2013-02-11 06:52:00,